User: anonymous   Login
Location: Nebula Knoll Observatory
(43.6666°N, 71.0000°W)
Time: 13:17:46
(UTC-04:00)
Language:

Cosmos 1782 - Orbit

View from above orbital plane
View from above orbital plane
View from above satellite
View from above satellite

Ground track
Ground track

The orbit data is extracted from the following two-line orbital elements,

1 16986U 86074A   18291.88176616 +.00000929 +00000-0 +60149-4 0  9993
2 16986 082.5090 005.6789 0012283 105.3103 254.9484 15.06943028723264
Epoch (UTC): 18 October 2018 21:09:44
Eccentricity: 0.0012283
inclination: 82.5090°
perigee height: 537 km
apogee height: 554 km
right ascension of ascending node: 5.6789°
argument of perigee: 105.3103°
revolutions per day: 15.06943028
mean anomaly at epoch: 254.9484°
orbit number at epoch: 72326

The dashed part of the orbit path shows where the satellite is in the earth's shadow,  

DLR